This is the latest recevied weather packets stored in our database for station/object W6TKD-13. If no packets are shown the sender has not sent any weather packets the latest 10 day(s).
| Time | Temp. | Humidity | Pressure | Rain* | Wind** | Luminosity | Snow |
|---|---|---|---|---|---|---|---|
| 1777827907 | 17.22° C | 56% | 1012.3 hPa | 0 mm | - | - | - |
| 1777826574 | 14.44° C | 55% | 1012 hPa | 0 mm | - | - | - |
| 1777825907 | 15° C | 56% | 1012.4 hPa | 0 mm | - | - | - |
| 1777823905 | 12.78° C | 57% | 1012.4 hPa | 0 mm | - | - | - |
| 1777823240 | 12.78° C | 57% | 1012.1 hPa | 0 mm | - | - | - |
| 1777822571 | 12.78° C | 57% | 1012.1 hPa | 0 mm | - | - | - |
| 1777821904 | 12.78° C | 57% | 1012.1 hPa | 0 mm | - | - | - |
| 1777821238 | 12.22° C | 57% | 1011.7 hPa | 0 mm | - | - | - |
| 1777820571 | 12.22° C | 58% | 1011.7 hPa | 0 mm | - | - | - |
| 1777819904 | 11.67° C | 58% | 1011.6 hPa | 0 mm | - | - | - |
| 1777819236 | 11.11° C | 58% | 1011.5 hPa | 0 mm | - | - | - |
| 1777818569 | 10.56° C | 57% | 1011.3 hPa | 0 mm | - | - | - |
| 1777817902 | 10.56° C | 57% | 1011.2 hPa | 0 mm | - | - | - |
| 1777817235 | 10.56° C | 57% | 1011 hPa | 0 mm | - | - | - |
| 1777816568 | 10.56° C | 57% | 1010.7 hPa | 0 mm | - | - | - |
| 1777815901 | 10.56° C | 57% | 1010.6 hPa | 0 mm | - | - | - |
| 1777815235 | 10.56° C | 56% | 1010.5 hPa | 0 mm | - | - | - |
| 1777814568 | 10.56° C | 56% | 1010.4 hPa | 0 mm | - | - | - |
| 1777813901 | 10.56° C | 56% | 1010.3 hPa | 0 mm | - | - | - |
| 1777813233 | 10.56° C | 56% | 1010.3 hPa | 0 mm | - | - | - |
| 1777812567 | 10.56° C | 55% | 1010.3 hPa | 0 mm | - | - | - |
| 1777811899 | 11.11° C | 55% | 1010.3 hPa | 0 mm | - | - | - |
| 1777811232 | 11.11° C | 55% | 1010.1 hPa | 0 mm | - | - | - |
| 1777810565 | 11.67° C | 55% | 1010.2 hPa | 0 mm | - | - | - |
| 1777809898 | 11.67° C | 55% | 1010 hPa | 0 mm | - | - | - |
* Rain since midnight (hover to see other rain measurements)
** Current wind speed in m/s (hover to see current wind gust speed)